logo tempoitalia

Diretta Meteo Lione-Bron, Francialunedì 31 agosto ore 07:00

Mappa
Sereno 20 °C Molto Nuvoloso 24 Ore: T.min 20 T.max 31
Ponente Nord/Nord-Est Km/h 11.1 Punto di rugiada: 16 °C Umidità: 77% Visibilità: 10 Km
Il sole sorge alle: 07:00 Il sole tramonta alle: 20:20
31 Agosto 2026 07:00 tempo osservato: Molto Nuvoloso Molto Nuvoloso 20 77 1019 vento: Nord N/NE 11.1
31 Agosto 2026 06:30 tempo osservato: Molto Nuvoloso Molto Nuvoloso 20 82 1019 vento: Nord N 5.5
31 Agosto 2026 06:00 tempo osservato: Molto Nuvoloso Molto Nuvoloso 20 88 1019 vento: Nord N 5.5
31 Agosto 2026 05:30 tempo osservato: Sereno Sereno 20 88 1019 vento: Nord N 3.7
31 Agosto 2026 05:00 tempo osservato: Sereno Sereno 20 82 1019 vento: Nord N 5.5
31 Agosto 2026 04:30 tempo osservato: Sereno Sereno 20 82 1019 vento: Nord N 0
31 Agosto 2026 04:00 tempo osservato: Sereno Sereno 20 82 1019 vento: Nord N 5.5
31 Agosto 2026 03:30 tempo osservato: Sereno Sereno 20 82 1019 vento: Nord E/NE 7.4
31 Agosto 2026 03:00 tempo osservato: Sereno Sereno 21 77 1019 vento: Nord N 5.5
31 Agosto 2026 02:30 tempo osservato: Sereno Sereno 21 77 1018 vento: Nord E/NE 9.3
31 Agosto 2026 02:00 tempo osservato: Molto Nuvoloso Molto Nuvoloso 21 77 1018 vento: Nord NE 11.1
31 Agosto 2026 01:30 tempo osservato: Molto Nuvoloso Molto Nuvoloso 21 77 1019 vento: Nord N/NE 9.3
31 Agosto 2026 01:00 tempo osservato: Pioggia Pioggia 22 78 1018 vento: Nord N/NE 7.4
31 Agosto 2026 00:30 tempo osservato: Sereno Sereno 23 68 1018 vento: Nord N 11.1
31 Agosto 2026 00:00 tempo osservato: Sereno Sereno 22 73 1017 vento: Nord NO 11.1
30 Agosto 2026 23:30 tempo osservato: Sereno Sereno 24 60 1017 vento: Nord O/NO 22.2
30 Agosto 2026 23:00 tempo osservato: Sereno Sereno 24 60 1016 vento: Nord O/NO 13
30 Agosto 2026 22:30 tempo osservato: Sereno Sereno 25 57 1015 vento: Nord O 13
30 Agosto 2026 22:00 tempo osservato: Sereno Sereno 25 61 1014 vento: Nord S/SE 13
30 Agosto 2026 21:30 tempo osservato: Sereno Sereno 24 64 1014 vento: Nord SE 7.4
30 Agosto 2026 21:00 tempo osservato: Sereno Sereno 25 65 1014 vento: Nord SE 9.3
30 Agosto 2026 20:30 tempo osservato: Sereno Sereno 26 54 1014 vento: Nord E 11.1
30 Agosto 2026 20:00 tempo osservato: Sereno Sereno 28 45 1013 vento: Nord N 5.5
30 Agosto 2026 19:30 tempo osservato: Sereno Sereno 29 42 1013 vento: Nord E/NE 7.4
30 Agosto 2026 19:00 tempo osservato: Sereno Sereno 30 40 1013 vento: Nord N 5.5
30 Agosto 2026 18:30 tempo osservato: Sereno Sereno 30 37 1014 vento: Nord N 5.5
30 Agosto 2026 18:00 tempo osservato: Sereno Sereno 30 37 1014 vento: Nord N 3.7
30 Agosto 2026 17:30 tempo osservato: Sereno Sereno 30 35 1014 vento: Nord N 5.5
30 Agosto 2026 17:00 tempo osservato: Sereno Sereno 30 35 1014 vento: Nord S 7.4
30 Agosto 2026 16:30 tempo osservato: Sereno Sereno 31 35 1014 vento: Nord N 5.5
30 Agosto 2026 16:00 tempo osservato: Sereno Sereno 30 35 1015 vento: Nord N 5.5
30 Agosto 2026 15:30 tempo osservato: Sereno Sereno 30 37 1015 vento: Nord N 5.5
30 Agosto 2026 15:00 tempo osservato: Sereno Sereno 31 35 1015 vento: Nord N 5.5
30 Agosto 2026 14:30 tempo osservato: Sereno Sereno 30 37 1016 vento: Nord N 7.4
30 Agosto 2026 14:00 tempo osservato: Sereno Sereno 29 39 1016 vento: Nord S/SE 7.4
30 Agosto 2026 13:30 tempo osservato: Sereno Sereno 29 42 1016 vento: Nord N 5.5
30 Agosto 2026 13:00 tempo osservato: Sereno Sereno 28 42 1016 vento: Nord N 5.5
30 Agosto 2026 12:30 tempo osservato: Sereno Sereno 28 42 1017 vento: Nord N 5.5
30 Agosto 2026 12:00 tempo osservato: Sereno Sereno 28 45 1017 vento: Nord N 3.7
30 Agosto 2026 11:30 tempo osservato: Sereno Sereno 27 44 1017 vento: Nord N 3.7
30 Agosto 2026 11:00 tempo osservato: Sereno Sereno 26 50 1017 vento: Nord N 3.7
30 Agosto 2026 10:30 tempo osservato: Sereno Sereno 25 53 1017 vento: Nord N 5.5
30 Agosto 2026 10:00 tempo osservato: Sereno Sereno 24 57 1017 vento: Nord N 3.7
30 Agosto 2026 09:30 tempo osservato: Sereno Sereno 24 57 1017 vento: Nord N 0
30 Agosto 2026 09:00 tempo osservato: Sereno Sereno 22 60 1017 vento: Nord N 3.7
30 Agosto 2026 08:30 tempo osservato: Sereno Sereno 22 68 1017 vento: Nord N 5.5
30 Agosto 2026 08:00 tempo osservato: Sereno Sereno 20 72 1017 vento: Nord N 3.7